Temp
66 66 66 66 66 65 65 65 65 65 65 65 64 64 64 64 63 63 63 63 63 63 63 63 64 64 64 63 64 63 63 63 62 62 61 60 60 60 60 60 60 60 59 59 58 58 59 59 59 58 58 57 56 54 53 52 51 50 49 48 48 47 47 47 47 45 44 43 43
65 66 66 66 66 66 65 65 65 65 65 65 64 64 64 64 64 64 63 63 63 63 63 64 64 64 63 63 63 63 63 62 62 61 61 60 60 60 61 61 60 60 59 59 59 59 59 59 58 57 56 55 54 53 52 51 50 49 48 47 47 47 46 46 45 44 43 42 42
65 66 66 66 66 65 65 65 65 65 64 64 64 64 64 64 64 64 64 64 64 64 64 64 64 63 63 63 63 63 63 62 62 61 61 61 61 61 61 61 60 60 60 59 59 59 59 58 58 56 55 54 53 51 50 49 49 49 48 48 48 47 46 45 43 43 43 43 42
65 66 66 66 65 65 65 65 65 64 64 64 64 64 65 64 64 64 64 64 64 64 64 64 64 63 63 63 63 63 63 62 62 61 61 61 61 61 60 60 60 59 59 59 59 58 57 57 56 55 53 52 51 50 50 49 49 48 48 48 47 46 45 44 43 43 43 42 42
65 66 66 65 65 65 65 65 65 64 64 65 64 64 65 65 65 64 64 64 64 64 64 64 64 64 64 63 62 62 62 62 62 62 62 61 60 60 60 59 59 59 59 58 58 57 56 55 54 53 52 51 51 50 50 49 48 48 48 47 46 45 44 43 43 42 42 42 41
65 65 65 65 65 65 65 65 65 65 65 65 64 64 64 64 64 64 64 64 63 63 63 63 64 64 63 63 63 63 62 62 63 62 62 60 60 59 59 58 58 58 58 57 56 56 55 54 53 52 51 51 50 50 49 49 48 47 47 45 45 44 43 42 42 42 41 40 39
65 65 65 65 65 65 65 65 65 65 65 65 64 64 64 64 64 64 63 63 63 63 63 64 63 63 63 63 63 63 63 63 62 62 61 60 59 58 58 58 57 57 56 56 56 55 54 53 52 52 51 51 50 49 49 48 47 46 45 44 44 43 42 41 42 41 40 38 38
65 65 64 64 65 64 64 65 65 65 65 65 64 63 63 63 63 63 63 63 63 63 63 64 63 63 63 63 63 63 63 62 62 61 60 59 58 58 58 57 57 56 55 55 54 54 53 53 52 51 51 50 49 49 48 48 46 45 44 43 44 43 42 41 41 41 40 39 39
64 64 64 64 64 64 64 64 64 64 64 64 63 63 63 63 63 63 63 63 63 63 64 64 63 63 63 63 63 63 62 62 61 60 59 59 58 57 57 56 55 55 54 53 53 52 52 52 51 51 50 50 49 48 47 46 45 44 43 42 43 43 43 43 42 41 40 39 39
64 64 64 64 64 64 64 64 64 64 63 63 63 63 63 63 63 63 63 64 64 64 63 63 63 63 63 63 63 63 62 61 61 60 59 59 58 57 56 55 54 53 53 52 52 52 51 51 50 50 49 49 48 47 46 44 43 43 43 43 42 42 43 43 42 41 40 39 38
64 64 64 64 64 64 64 63 63 63 63 63 62 62 63 63 63 63 64 64 64 63 63 63 63 63 63 63 63 62 62 61 60 60 59 58 57 56 55 54 53 53 52 52 51 51 50 50 49 49 48 48 47 46 45 44 43 42 42 42 42 42 42 42 41 39 39 39 38
64 64 64 64 64 64 64 63 63 63 63 62 62 63 63 63 63 64 64 64 63 62 63 63 64 64 64 63 63 62 61 61 60 59 58 57 56 55 54 54 53 53 52 52 51 50 50 49 49 48 47 47 47 46 44 44 43 42 42 42 42 42 41 41 40 39 39 38 38
64 64 64 64 64 64 63 63 63 63 63 62 63 63 63 63 63 64 63 63 63 63 63 64 64 64 64 63 62 62 61 60 59 58 57 56 55 55 54 53 53 52 52 51 50 50 49 49 48 47 47 47 46 45 45 44 44 43 43 42 41 41 40 40 40 39 39 38 38
64 64 64 64 64 63 63 63 63 63 63 62 63 63 63 63 63 64 63 63 63 63 64 64 64 64 64 63 62 61 60 60 59 58 57 56 55 54 54 53 52 52 51 51 50 50 49 49 48 47 47 46 45 45 45 45 45 44 43 42 41 40 40 40 40 39 38 37 37
64 64 64 64 63 63 63 63 63 63 63 62 63 63 64 64 64 64 64 63 63 64 64 64 64 64 63 62 61 60 59 59 58 57 56 55 55 54 53 52 52 51 51 51 50 50 49 49 48 47 46 46 45 45 46 46 45 44 43 42 42 41 40 40 39 39 38 37 36
64 63 63 63 63 63 63 63 63 63 63 63 63 63 64 64 64 64 64 63 64 64 64 64 63 63 62 61 60 59 59 58 57 56 55 54 53 53 52 52 51 51 51 50 50 49 49 49 48 48 47 46 46 45 45 45 45 44 43 43 42 41 40 40 39 38 37 37 35
63 63 63 63 63 63 63 63 63 63 63 63 63 63 64 64 64 64 64 64 64 64 63 63 62 61 60 59 59 59 58 57 56 55 54 54 53 52 52 51 51 50 50 50 49 49 48 48 48 48 47 46 46 45 45 45 44 44 43 42 41 41 40 39 38 37 36 36 35
64 64 64 63 63 62 62 62 63 63 63 62 63 63 64 64 64 64 64 64 64 63 62 60 60 59 59 58 58 58 57 56 55 55 54 54 53 52 52 51 50 50 50 49 49 48 48 48 48 48 48 47 46 45 45 44 44 43 42 41 40 39 38 37 36 36 36 35 34
64 64 64 63 62 62 62 62 62 62 62 62 63 63 63 63 63 64 63 63 62 61 60 58 58 58 58 58 58 57 57 56 55 54 54 53 52 52 51 51 50 49 49 48 48 48 48 48 48 48 47 46 45 45 44 43 43 42 41 40 38 37 35 35 35 35 35 35 33
65 65 64 63 62 62 62 62 62 62 62 63 63 63 63 63 63 62 61 60 60 59 58 57 58 58 58 57 57 56 56 55 54 53 53 52 52 51 51 50 49 49 48 48 48 48 48 48 47 47 46 45 44 43 42 42 41 40 39 38 37 36 35 35 35 35 34 34 33
65 65 64 63 62 62 62 62 62 62 62 62 62 62 62 62 61 60 59 58 58 58 57 57 57 57 57 56 55 55 54 54 53 53 52 52 51 51 50 50 49 48 48 47 48 48 48 47 47 46 45 44 43 42 41 41 40 39 39 38 37 36 36 35 35 34 34 33 32
65 65 64 64 63 62 62 62 62 62 62 61 61 61 60 59 58 58 57 57 57 57 57 57 57 57 56 55 54 54 53 53 53 52 52 51 50 50 49 49 48 47 46 46 46 46 46 46 46 44 43 42 41 41 41 41 40 39 38 37 37 36 36 35 34 34 33 33 32
65 65 65 64 63 62 62 62 61 61 60 60 59 58 58 57 57 56 57 57 57 57 57 57 56 56 55 54 53 53 52 52 51 51 50 50 49 49 48 48 46 45 45 44 44 43 43 43 43 41 40 40 41 41 41 41 40 38 37 36 36 35 35 34 34 34 33 33 32
65 65 65 65 63 63 62 62 61 60 58 58 57 56 56 56 56 56 57 57 57 57 56 56 55 54 54 53 52 51 51 50 49 49 49 48 48 47 47 46 45 44 43 43 43 42 41 40 39 39 40 41 41 41 41 39 37 36 36 36 35 35 34 34 34 34 33 33 33
65 65 65 64 63 63 62 61 59 58 57 56 56 56 56 56 57 57 57 57 56 55 55 54 54 53 53 52 51 51 50 49 48 48 47 47 47 46 45 45 44 43 43 45 45 45 44 43 41 41 41 42 41 41 40 38 38 38 38 37 36 35 35 34 34 33 33 33 34
65 65 64 63 63 62 61 59 58 57 57 57 57 57 57 57 57 57 56 55 54 54 53 53 53 52 52 51 51 50 49 49 48 47 46 46 45 45 44 44 44 43 43 46 47 47 46 46 45 44 43 42 41 40 40 39 39 39 38 37 37 36 35 35 34 34 33 34 34
65 64 63 62 61 60 59 59 58 58 57 57 57 57 57 57 56 55 54 53 53 53 53 52 52 52 51 51 50 49 49 48 48 47 46 46 45 44 44 44 44 44 45 47 47 48 47 47 46 45 43 41 40 39 39 39 39 39 38 38 37 37 36 35 35 34 34 33 33
63 63 62 61 60 59 59 59 58 57 57 57 57 56 56 55 55 54 53 52 52 52 52 51 51 51 51 50 49 48 48 47 47 46 46 45 45 44 44 44 45 46 47 48 48 48 48 47 46 45 44 41 40 39 39 39 39 39 39 38 38 37 36 36 36 35 35 34 34
62 61 61 60 59 58 58 57 57 57 57 56 56 55 55 54 53 53 52 52 51 51 50 50 50 50 49 48 48 47 47 46 46 46 45 45 45 44 44 44 45 46 48 49 48 48 47 47 46 45 44 43 41 40 40 39 39 39 39 39 38 37 37 36 36 35 35 34 34
61 60 59 58 58 57 57 56 56 56 56 55 55 54 54 53 53 52 52 51 51 50 50 50 49 48 48 47 47 46 46 46 46 46 45 45 44 44 45 45 46 47 48 49 48 48 47 47 46 46 45 44 42 41 40 40 40 39 39 38 37 36 36 35 35 34 34 34 34
60 59 58 57 57 56 56 56 55 55 55 55 54 54 53 53 52 51 51 50 50 50 50 49 48 47 47 46 46 45 45 45 45 45 45 45 45 45 45 45 46 47 48 48 48 48 47 47 46 46 45 44 43 41 40 40 39 39 38 37 36 35 35 35 34 34 34 34 33
59 58 57 56 56 55 55 55 55 54 54 54 54 53 52 51 51 50 50 50 50 49 49 48 47 46 46 46 45 45 45 45 45 45 45 45 45 45 45 46 46 47 48 48 48 48 47 47 47 46 45 45 43 41 40 39 38 37 37 36 35 34 34 35 33 32 32 32 32
58 58 57 56 55 55 54 54 54 54 53 53 53 52 51 50 50 50 50 49 49 48 48 47 46 46 45 45 44 44 44 45 45 46 46 46 45 45 45 45 46 47 48 48 48 48 47 47 47 46 45 44 43 41 39 39 38 37 35 34 34 33 33 32 32 31 30 30 30
58 57 56 55 54 54 54 54 53 53 53 52 52 51 50 50 49 49 49 49 49 48 47 47 46 46 45 45 45 45 45 45 45 45 45 45 45 45 45 45 46 47 48 48 48 48 48 47 47 46 45 44 42 40 39 38 37 36 34 33 33 32 31 31 30 29 29 28 28
57 56 55 54 54 54 53 53 53 52 52 51 50 50 50 49 49 49 48 48 48 48 47 47 47 46 46 46 45 45 45 45 45 45 45 45 45 45 45 45 46 47 48 48 48 48 48 47 46 45 44 43 41 39 37 36 35 34 33 33 32 31 30 29 29 28 28 27 27
56 55 55 54 54 53 53 52 52 52 51 50 50 49 49 49 49 48 48 48 47 47 46 46 46 46 45 45 46 46 46 45 45 45 46 46 45 45 44 45 46 47 48 48 48 48 47 47 46 45 43 41 39 38 37 36 35 33 32 32 31 30 29 29 28 28 27 27 27
56 55 54 54 53 53 52 52 52 51 50 50 49 49 49 48 48 48 48 48 47 46 45 45 45 45 45 45 45 45 45 45 45 45 46 46 45 45 44 44 45 46 47 48 48 48 47 46 45 44 42 39 38 37 36 35 34 33 32 31 30 29 29 29 28 27 27 27 27
56 55 54 53 53 53 52 52 51 50 50 49 49 49 48 48 48 47 47 47 46 46 45 45 45 45 45 45 45 45 45 46 46 46 45 46 45 45 44 44 45 46 47 48 48 47 47 46 45 43 41 38 37 36 36 35 34 33 32 31 30 29 28 29 28 28 28 29 32
56 55 54 53 53 53 52 52 51 50 50 49 49 48 48 48 47 47 47 47 46 46 45 45 44 45 45 45 45 45 45 46 46 46 46 45 46 45 45 44 45 45 47 47 47 47 46 45 44 43 41 39 37 37 36 35 34 33 32 31 30 29 27 28 28 28 29 31 37
56 55 54 54 53 53 52 52 51 50 50 49 48 48 48 48 47 47 47 47 46 46 45 45 44 45 45 45 45 45 45 45 46 46 46 46 46 46 46 45 45 45 46 47 47 46 46 45 44 43 42 39 37 37 36 35 33 32 31 31 30 29 28 27 27 28 29 30 36
56 56 55 54 53 53 52 51 51 50 50 49 48 48 48 48 47 47 47 46 46 46 45 45 44 45 45 45 45 44 44 45 45 46 46 46 46 46 46 45 44 45 45 46 46 46 46 45 44 43 42 39 37 37 36 35 33 32 31 31 31 30 29 28 27 27 27 28 31
MSLP
1004.75 1004.95 1005.19 1005.35 1005.67 1005.99 1006.35 1006.67 1006.95 1007.23 1007.51 1007.79 1008.11 1008.43 1008.75 1009.03 1009.35 1009.63 1009.91 1010.15 1010.39 1010.67 1010.95 1011.19 1011.43 1011.67 1011.95 1012.23 1012.43 1012.67 1012.91 1013.11 1013.35 1013.51 1013.75 1013.95 1014.15 1014.39 1014.55 1014.75 1014.95 1015.19 1015.43 1015.67 1015.87 1016.03 1016.19 1016.35 1016.51 1016.79 1017.07 1017.27 1017.55 1017.83 1018.07 1018.23 1018.39 1018.55 1018.79 1018.99 1019.23 1019.39 1019.51 1019.67 1019.91 1020.07 1020.23 1020.35 1020.51
1004.87 1005.07 1005.27 1005.51 1005.79 1006.07 1006.39 1006.75 1007.07 1007.35 1007.63 1007.91 1008.19 1008.43 1008.71 1008.99 1009.27 1009.59 1009.91 1010.15 1010.39 1010.67 1010.95 1011.23 1011.47 1011.71 1011.99 1012.23 1012.47 1012.67 1012.95 1013.15 1013.35 1013.59 1013.79 1014.03 1014.19 1014.39 1014.55 1014.79 1014.99 1015.19 1015.43 1015.67 1015.87 1016.07 1016.23 1016.39 1016.63 1016.95 1017.27 1017.51 1017.79 1018.07 1018.31 1018.51 1018.59 1018.75 1018.99 1019.23 1019.39 1019.51 1019.67 1019.87 1020.11 1020.31 1020.39 1020.51 1020.67
1004.95 1005.19 1005.39 1005.67 1005.95 1006.23 1006.51 1006.79 1007.07 1007.39 1007.67 1007.99 1008.27 1008.51 1008.75 1009.03 1009.31 1009.59 1009.91 1010.19 1010.43 1010.71 1010.99 1011.23 1011.51 1011.79 1012.07 1012.31 1012.51 1012.71 1012.95 1013.11 1013.35 1013.63 1013.83 1014.07 1014.23 1014.39 1014.63 1014.79 1015.03 1015.23 1015.47 1015.67 1015.91 1016.07 1016.23 1016.51 1016.75 1017.07 1017.43 1017.71 1017.95 1018.23 1018.51 1018.71 1018.79 1018.95 1019.15 1019.35 1019.55 1019.71 1019.91 1020.11 1020.35 1020.47 1020.59 1020.67 1020.83
1005.03 1005.27 1005.51 1005.75 1005.95 1006.23 1006.47 1006.75 1007.07 1007.35 1007.71 1008.03 1008.27 1008.55 1008.83 1009.07 1009.35 1009.67 1009.95 1010.23 1010.51 1010.79 1010.99 1011.23 1011.55 1011.83 1012.07 1012.31 1012.55 1012.79 1012.95 1013.15 1013.35 1013.59 1013.83 1014.07 1014.27 1014.47 1014.67 1014.87 1015.07 1015.31 1015.51 1015.71 1015.95 1016.11 1016.35 1016.59 1016.95 1017.27 1017.63 1017.87 1018.11 1018.39 1018.63 1018.83 1018.95 1019.11 1019.31 1019.55 1019.75 1019.91 1020.07 1020.31 1020.47 1020.59 1020.71 1020.91 1021.03
1005.19 1005.35 1005.63 1005.87 1006.07 1006.27 1006.51 1006.79 1007.07 1007.39 1007.71 1008.03 1008.31 1008.63 1008.91 1009.15 1009.43 1009.71 1009.99 1010.27 1010.55 1010.83 1011.07 1011.27 1011.55 1011.83 1012.11 1012.35 1012.55 1012.79 1013.03 1013.23 1013.43 1013.67 1013.87 1014.11 1014.35 1014.51 1014.71 1014.95 1015.15 1015.39 1015.63 1015.79 1016.03 1016.23 1016.47 1016.79 1017.15 1017.51 1017.83 1018.07 1018.27 1018.51 1018.75 1018.91 1019.07 1019.27 1019.51 1019.79 1019.95 1020.11 1020.27 1020.47 1020.63 1020.75 1020.87 1021.07 1021.23
1005.31 1005.59 1005.79 1006.03 1006.23 1006.43 1006.71 1006.95 1007.23 1007.51 1007.79 1008.07 1008.39 1008.67 1008.95 1009.23 1009.51 1009.75 1010.03 1010.31 1010.59 1010.87 1011.15 1011.35 1011.59 1011.87 1012.15 1012.39 1012.63 1012.83 1013.07 1013.31 1013.47 1013.67 1013.95 1014.19 1014.39 1014.63 1014.79 1015.03 1015.23 1015.47 1015.67 1015.91 1016.15 1016.35 1016.59 1016.95 1017.35 1017.71 1017.99 1018.23 1018.47 1018.67 1018.83 1018.95 1019.11 1019.35 1019.67 1019.95 1020.23 1020.39 1020.47 1020.63 1020.79 1020.95 1021.07 1021.23 1021.39
1005.47 1005.71 1005.95 1006.15 1006.35 1006.55 1006.79 1007.07 1007.35 1007.63 1007.91 1008.19 1008.43 1008.71 1008.99 1009.27 1009.51 1009.79 1010.07 1010.35 1010.67 1010.95 1011.23 1011.47 1011.71 1011.95 1012.19 1012.43 1012.67 1012.91 1013.11 1013.35 1013.55 1013.79 1013.99 1014.27 1014.51 1014.75 1014.95 1015.15 1015.39 1015.63 1015.83 1016.07 1016.27 1016.51 1016.75 1017.07 1017.47 1017.83 1018.11 1018.35 1018.63 1018.87 1018.99 1019.07 1019.23 1019.43 1019.75 1020.07 1020.35 1020.51 1020.67 1020.79 1020.95 1021.11 1021.27 1021.39 1021.51
1005.63 1005.83 1006.07 1006.23 1006.47 1006.67 1006.95 1007.23 1007.51 1007.79 1008.07 1008.31 1008.59 1008.83 1009.07 1009.35 1009.59 1009.87 1010.15 1010.43 1010.75 1010.99 1011.23 1011.47 1011.71 1011.95 1012.11 1012.39 1012.63 1012.91 1013.15 1013.35 1013.63 1013.91 1014.15 1014.39 1014.63 1014.83 1015.07 1015.31 1015.55 1015.79 1015.99 1016.23 1016.43 1016.67 1016.95 1017.23 1017.59 1017.91 1018.23 1018.47 1018.75 1018.95 1019.15 1019.23 1019.35 1019.55 1019.83 1020.15 1020.43 1020.67 1020.83 1021.03 1021.15 1021.27 1021.39 1021.51 1021.63
1005.79 1006.03 1006.19 1006.39 1006.59 1006.83 1007.07 1007.35 1007.63 1007.87 1008.15 1008.47 1008.75 1008.99 1009.23 1009.51 1009.71 1009.95 1010.23 1010.51 1010.79 1010.95 1011.23 1011.51 1011.75 1011.95 1012.11 1012.35 1012.59 1012.91 1013.19 1013.39 1013.71 1013.99 1014.23 1014.43 1014.67 1014.95 1015.23 1015.51 1015.75 1016.03 1016.23 1016.43 1016.63 1016.83 1017.07 1017.39 1017.71 1018.03 1018.27 1018.51 1018.79 1019.07 1019.23 1019.39 1019.51 1019.71 1019.95 1020.23 1020.51 1020.79 1020.99 1021.19 1021.31 1021.43 1021.55 1021.67 1021.79
1005.95 1006.11 1006.35 1006.55 1006.79 1007.03 1007.27 1007.51 1007.79 1007.99 1008.23 1008.59 1008.87 1009.15 1009.35 1009.63 1009.79 1010.03 1010.27 1010.51 1010.79 1011.03 1011.27 1011.51 1011.79 1011.99 1012.23 1012.39 1012.63 1012.91 1013.23 1013.47 1013.79 1014.07 1014.31 1014.51 1014.79 1015.07 1015.35 1015.67 1015.91 1016.19 1016.47 1016.67 1016.79 1016.99 1017.23 1017.51 1017.87 1018.19 1018.43 1018.67 1018.91 1019.19 1019.39 1019.51 1019.67 1019.83 1020.11 1020.39 1020.63 1020.83 1021.07 1021.31 1021.47 1021.63 1021.75 1021.87 1021.99
1005.95 1006.19 1006.39 1006.67 1006.95 1007.19 1007.43 1007.71 1007.95 1008.23 1008.47 1008.75 1009.07 1009.31 1009.51 1009.75 1009.95 1010.11 1010.35 1010.59 1010.87 1011.11 1011.35 1011.59 1011.79 1011.99 1012.23 1012.47 1012.79 1013.07 1013.31 1013.59 1013.87 1014.11 1014.39 1014.67 1014.95 1015.23 1015.51 1015.79 1016.03 1016.27 1016.51 1016.79 1016.95 1017.15 1017.35 1017.67 1017.95 1018.31 1018.63 1018.83 1019.07 1019.31 1019.51 1019.67 1019.79 1019.99 1020.23 1020.51 1020.71 1020.91 1021.15 1021.43 1021.67 1021.79 1021.95 1022.07 1022.19
1006.07 1006.31 1006.51 1006.79 1007.07 1007.31 1007.55 1007.83 1008.07 1008.39 1008.67 1008.95 1009.19 1009.39 1009.63 1009.83 1010.03 1010.23 1010.43 1010.67 1010.95 1011.23 1011.43 1011.67 1011.79 1012.03 1012.23 1012.51 1012.87 1013.15 1013.43 1013.67 1013.95 1014.23 1014.55 1014.83 1015.15 1015.43 1015.67 1015.95 1016.19 1016.39 1016.67 1016.91 1017.07 1017.27 1017.51 1017.79 1018.07 1018.39 1018.71 1018.99 1019.23 1019.43 1019.63 1019.79 1019.91 1020.07 1020.35 1020.63 1020.83 1021.03 1021.27 1021.55 1021.79 1021.95 1022.11 1022.23 1022.35
1006.23 1006.51 1006.75 1006.99 1007.23 1007.47 1007.71 1007.95 1008.23 1008.51 1008.79 1009.07 1009.31 1009.51 1009.71 1009.95 1010.11 1010.31 1010.51 1010.79 1011.03 1011.31 1011.55 1011.75 1011.91 1012.11 1012.39 1012.63 1012.95 1013.23 1013.51 1013.79 1014.07 1014.39 1014.71 1015.03 1015.31 1015.63 1015.87 1016.15 1016.39 1016.59 1016.79 1017.03 1017.23 1017.39 1017.63 1017.91 1018.11 1018.39 1018.67 1019.03 1019.27 1019.51 1019.71 1019.83 1019.95 1020.15 1020.39 1020.71 1020.95 1021.23 1021.43 1021.67 1021.87 1022.07 1022.23 1022.39 1022.51
1006.39 1006.67 1006.91 1007.11 1007.35 1007.63 1007.87 1008.15 1008.39 1008.67 1008.95 1009.19 1009.39 1009.59 1009.79 1010.03 1010.23 1010.39 1010.63 1010.87 1011.11 1011.35 1011.63 1011.87 1012.07 1012.27 1012.51 1012.79 1013.07 1013.39 1013.67 1013.99 1014.27 1014.55 1014.91 1015.23 1015.51 1015.79 1016.03 1016.27 1016.51 1016.67 1016.95 1017.19 1017.35 1017.51 1017.71 1017.99 1018.23 1018.43 1018.71 1019.03 1019.35 1019.63 1019.79 1019.91 1020.07 1020.27 1020.51 1020.79 1021.07 1021.31 1021.55 1021.79 1021.95 1022.15 1022.35 1022.51 1022.67
1006.63 1006.87 1007.07 1007.31 1007.51 1007.79 1008.03 1008.31 1008.55 1008.79 1009.07 1009.27 1009.47 1009.67 1009.87 1010.07 1010.31 1010.51 1010.71 1010.99 1011.23 1011.43 1011.67 1011.95 1012.19 1012.47 1012.75 1013.03 1013.31 1013.59 1013.87 1014.15 1014.43 1014.75 1015.07 1015.39 1015.67 1015.91 1016.15 1016.39 1016.59 1016.79 1017.03 1017.31 1017.55 1017.75 1017.95 1018.11 1018.35 1018.55 1018.79 1019.07 1019.39 1019.67 1019.87 1020.07 1020.23 1020.47 1020.67 1020.95 1021.15 1021.39 1021.67 1021.95 1022.07 1022.23 1022.43 1022.59 1022.79
1006.79 1007.07 1007.31 1007.51 1007.71 1007.95 1008.19 1008.39 1008.67 1008.91 1009.15 1009.35 1009.51 1009.71 1009.95 1010.15 1010.39 1010.63 1010.83 1011.07 1011.35 1011.55 1011.79 1011.99 1012.31 1012.67 1012.99 1013.27 1013.51 1013.79 1014.07 1014.39 1014.67 1014.95 1015.23 1015.51 1015.79 1016.07 1016.27 1016.51 1016.71 1016.95 1017.15 1017.39 1017.67 1017.91 1018.11 1018.31 1018.51 1018.75 1018.95 1019.19 1019.43 1019.71 1019.95 1020.23 1020.43 1020.71 1020.95 1021.23 1021.39 1021.63 1021.83 1022.07 1022.23 1022.43 1022.59 1022.71 1022.91
1007.03 1007.23 1007.47 1007.67 1007.87 1008.07 1008.31 1008.51 1008.79 1009.03 1009.23 1009.39 1009.63 1009.79 1010.03 1010.23 1010.51 1010.75 1010.95 1011.19 1011.39 1011.63 1011.91 1012.19 1012.51 1012.83 1013.23 1013.51 1013.79 1013.99 1014.27 1014.55 1014.83 1015.11 1015.35 1015.67 1015.91 1016.19 1016.39 1016.63 1016.87 1017.07 1017.23 1017.47 1017.75 1018.03 1018.31 1018.55 1018.75 1018.95 1019.11 1019.35 1019.55 1019.83 1020.07 1020.35 1020.67 1020.95 1021.23 1021.43 1021.67 1021.87 1022.07 1022.23 1022.43 1022.59 1022.75 1022.91 1023.07
1007.23 1007.43 1007.67 1007.83 1008.07 1008.23 1008.43 1008.63 1008.87 1009.11 1009.35 1009.51 1009.71 1009.91 1010.07 1010.31 1010.55 1010.79 1011.07 1011.27 1011.47 1011.75 1012.07 1012.43 1012.75 1013.07 1013.35 1013.67 1013.95 1014.23 1014.51 1014.79 1015.03 1015.27 1015.55 1015.79 1016.07 1016.31 1016.55 1016.79 1016.99 1017.19 1017.39 1017.59 1017.83 1018.11 1018.39 1018.67 1018.91 1019.11 1019.35 1019.51 1019.79 1020.03 1020.27 1020.51 1020.83 1021.11 1021.39 1021.71 1021.95 1022.19 1022.39 1022.51 1022.67 1022.79 1022.95 1023.11 1023.31
1007.39 1007.59 1007.79 1007.95 1008.19 1008.39 1008.59 1008.79 1008.99 1009.23 1009.43 1009.63 1009.83 1010.03 1010.23 1010.43 1010.67 1010.91 1011.19 1011.47 1011.71 1011.95 1012.27 1012.63 1012.95 1013.27 1013.55 1013.83 1014.11 1014.43 1014.71 1014.95 1015.23 1015.51 1015.79 1016.03 1016.27 1016.51 1016.75 1016.95 1017.23 1017.39 1017.63 1017.79 1018.03 1018.27 1018.51 1018.75 1018.99 1019.23 1019.51 1019.71 1019.99 1020.23 1020.51 1020.79 1021.07 1021.39 1021.71 1021.99 1022.23 1022.47 1022.63 1022.79 1022.95 1023.07 1023.23 1023.35 1023.51
1007.51 1007.71 1007.95 1008.11 1008.31 1008.51 1008.75 1008.95 1009.11 1009.31 1009.51 1009.71 1009.95 1010.15 1010.39 1010.55 1010.75 1011.03 1011.35 1011.71 1011.99 1012.23 1012.51 1012.79 1013.11 1013.47 1013.79 1014.07 1014.35 1014.63 1014.95 1015.19 1015.47 1015.75 1015.99 1016.27 1016.51 1016.75 1016.95 1017.19 1017.39 1017.63 1017.79 1018.03 1018.23 1018.47 1018.67 1018.95 1019.19 1019.43 1019.67 1019.95 1020.23 1020.47 1020.75 1021.07 1021.35 1021.67 1021.99 1022.23 1022.51 1022.67 1022.83 1022.99 1023.15 1023.35 1023.47 1023.59 1023.75
1007.67 1007.83 1008.03 1008.23 1008.43 1008.67 1008.83 1009.03 1009.23 1009.39 1009.63 1009.83 1010.07 1010.31 1010.51 1010.75 1010.99 1011.31 1011.63 1011.91 1012.23 1012.51 1012.75 1012.99 1013.31 1013.63 1013.95 1014.23 1014.55 1014.83 1015.15 1015.43 1015.71 1015.95 1016.23 1016.47 1016.71 1016.95 1017.19 1017.35 1017.59 1017.79 1018.03 1018.23 1018.39 1018.67 1018.87 1019.11 1019.39 1019.67 1019.91 1020.15 1020.43 1020.67 1020.95 1021.23 1021.55 1021.87 1022.19 1022.43 1022.67 1022.91 1023.07 1023.23 1023.39 1023.59 1023.71 1023.83 1023.95
1007.75 1007.95 1008.11 1008.35 1008.51 1008.71 1008.95 1009.15 1009.35 1009.55 1009.79 1010.03 1010.23 1010.51 1010.75 1011.03 1011.35 1011.67 1011.95 1012.15 1012.39 1012.67 1012.95 1013.23 1013.51 1013.79 1014.11 1014.39 1014.71 1015.03 1015.35 1015.67 1015.95 1016.23 1016.47 1016.75 1016.99 1017.23 1017.43 1017.63 1017.79 1018.03 1018.23 1018.43 1018.67 1018.83 1019.07 1019.35 1019.63 1019.91 1020.15 1020.43 1020.67 1020.87 1021.11 1021.39 1021.67 1021.99 1022.31 1022.63 1022.91 1023.11 1023.35 1023.51 1023.67 1023.79 1023.95 1024.07 1024.15
1007.83 1008.03 1008.23 1008.47 1008.67 1008.87 1009.07 1009.31 1009.51 1009.71 1009.99 1010.27 1010.51 1010.79 1011.07 1011.35 1011.67 1011.95 1012.19 1012.39 1012.67 1012.91 1013.19 1013.51 1013.79 1014.11 1014.39 1014.63 1014.91 1015.23 1015.51 1015.91 1016.23 1016.47 1016.71 1016.95 1017.23 1017.51 1017.71 1017.91 1018.07 1018.27 1018.47 1018.71 1018.87 1019.07 1019.27 1019.55 1019.87 1020.19 1020.39 1020.67 1020.87 1021.07 1021.31 1021.51 1021.79 1022.15 1022.47 1022.79 1023.07 1023.35 1023.55 1023.75 1023.83 1023.99 1024.11 1024.23 1024.39
1007.95 1008.15 1008.39 1008.59 1008.79 1008.99 1009.23 1009.47 1009.71 1009.99 1010.31 1010.59 1010.87 1011.11 1011.39 1011.67 1011.91 1012.15 1012.39 1012.63 1012.87 1013.15 1013.47 1013.79 1014.11 1014.39 1014.67 1014.91 1015.15 1015.39 1015.67 1015.99 1016.39 1016.71 1016.99 1017.23 1017.47 1017.71 1017.95 1018.19 1018.39 1018.59 1018.79 1018.99 1019.15 1019.27 1019.51 1019.79 1020.11 1020.39 1020.59 1020.79 1021.03 1021.31 1021.55 1021.79 1022.07 1022.35 1022.59 1022.91 1023.23 1023.51 1023.71 1023.91 1024.03 1024.11 1024.27 1024.43 1024.51
1008.03 1008.23 1008.43 1008.67 1008.91 1009.15 1009.43 1009.71 1010.03 1010.35 1010.67 1010.95 1011.19 1011.43 1011.67 1011.87 1012.07 1012.31 1012.59 1012.91 1013.19 1013.47 1013.79 1014.07 1014.39 1014.67 1014.95 1015.19 1015.43 1015.67 1015.87 1016.15 1016.47 1016.79 1017.15 1017.47 1017.67 1017.91 1018.15 1018.43 1018.67 1018.87 1019.07 1019.23 1019.35 1019.51 1019.71 1019.95 1020.19 1020.43 1020.67 1020.95 1021.23 1021.51 1021.83 1022.07 1022.27 1022.51 1022.75 1023.03 1023.31 1023.55 1023.79 1024.03 1024.19 1024.31 1024.39 1024.51 1024.59
1008.11 1008.35 1008.59 1008.83 1009.11 1009.43 1009.75 1010.03 1010.31 1010.67 1010.95 1011.19 1011.39 1011.63 1011.83 1012.07 1012.31 1012.55 1012.83 1013.19 1013.51 1013.75 1014.03 1014.31 1014.59 1014.87 1015.15 1015.39 1015.67 1015.95 1016.15 1016.43 1016.67 1016.95 1017.23 1017.59 1017.87 1018.11 1018.39 1018.59 1018.87 1019.07 1019.27 1019.35 1019.51 1019.71 1019.91 1020.11 1020.31 1020.51 1020.75 1021.07 1021.35 1021.67 1021.95 1022.23 1022.51 1022.71 1022.99 1023.23 1023.39 1023.55 1023.79 1024.03 1024.23 1024.39 1024.51 1024.63 1024.67
1008.31 1008.55 1008.83 1009.07 1009.43 1009.71 1009.99 1010.23 1010.59 1010.91 1011.19 1011.35 1011.59 1011.79 1012.07 1012.31 1012.55 1012.83 1013.11 1013.43 1013.75 1014.03 1014.27 1014.51 1014.79 1015.07 1015.31 1015.59 1015.87 1016.11 1016.39 1016.67 1016.95 1017.15 1017.39 1017.71 1017.99 1018.23 1018.51 1018.75 1018.95 1019.23 1019.35 1019.51 1019.67 1019.87 1020.07 1020.31 1020.51 1020.71 1020.95 1021.19 1021.43 1021.71 1021.99 1022.35 1022.67 1022.95 1023.19 1023.39 1023.51 1023.63 1023.79 1023.99 1024.23 1024.39 1024.55 1024.67 1024.71
1008.55 1008.79 1009.07 1009.35 1009.67 1009.99 1010.31 1010.55 1010.87 1011.15 1011.39 1011.63 1011.83 1012.07 1012.31 1012.59 1012.87 1013.11 1013.39 1013.67 1013.95 1014.23 1014.51 1014.79 1015.03 1015.27 1015.51 1015.79 1016.07 1016.35 1016.59 1016.91 1017.19 1017.43 1017.67 1017.91 1018.11 1018.39 1018.59 1018.83 1019.07 1019.31 1019.47 1019.63 1019.79 1019.99 1020.23 1020.47 1020.71 1020.95 1021.15 1021.39 1021.63 1021.83 1022.11 1022.43 1022.79 1023.07 1023.27 1023.51 1023.63 1023.79 1023.91 1024.07 1024.23 1024.39 1024.59 1024.75 1024.83
1008.79 1009.07 1009.35 1009.67 1009.95 1010.23 1010.55 1010.83 1011.07 1011.35 1011.59 1011.83 1012.07 1012.31 1012.59 1012.87 1013.07 1013.35 1013.67 1013.91 1014.11 1014.39 1014.67 1014.95 1015.19 1015.47 1015.75 1016.07 1016.31 1016.55 1016.79 1017.07 1017.35 1017.59 1017.83 1018.07 1018.35 1018.51 1018.71 1018.95 1019.19 1019.39 1019.55 1019.71 1019.95 1020.15 1020.39 1020.67 1020.87 1021.11 1021.35 1021.51 1021.75 1021.99 1022.27 1022.55 1022.79 1023.07 1023.35 1023.55 1023.71 1023.87 1023.99 1024.15 1024.31 1024.47 1024.67 1024.79 1024.95
1009.07 1009.35 1009.63 1009.95 1010.23 1010.51 1010.79 1011.07 1011.31 1011.59 1011.83 1012.07 1012.31 1012.59 1012.83 1013.07 1013.35 1013.59 1013.83 1014.07 1014.31 1014.55 1014.79 1015.07 1015.35 1015.67 1015.95 1016.23 1016.51 1016.79 1017.03 1017.27 1017.51 1017.75 1017.95 1018.19 1018.43 1018.67 1018.87 1019.07 1019.31 1019.51 1019.75 1019.87 1020.07 1020.31 1020.55 1020.79 1021.03 1021.27 1021.47 1021.67 1021.87 1022.11 1022.39 1022.67 1022.91 1023.15 1023.39 1023.63 1023.79 1023.95 1024.11 1024.27 1024.43 1024.63 1024.79 1024.91 1025.07
1009.27 1009.59 1009.91 1010.23 1010.51 1010.79 1011.07 1011.31 1011.55 1011.79 1012.03 1012.27 1012.55 1012.79 1013.03 1013.31 1013.63 1013.83 1014.07 1014.23 1014.51 1014.75 1014.99 1015.23 1015.51 1015.79 1016.15 1016.39 1016.67 1016.95 1017.19 1017.47 1017.71 1017.91 1018.07 1018.27 1018.51 1018.75 1018.99 1019.23 1019.43 1019.67 1019.87 1020.07 1020.23 1020.47 1020.71 1020.91 1021.15 1021.35 1021.59 1021.79 1021.99 1022.23 1022.51 1022.75 1023.03 1023.23 1023.51 1023.75 1023.95 1024.11 1024.27 1024.47 1024.67 1024.79 1024.95 1025.07 1025.19
1009.51 1009.83 1010.15 1010.47 1010.79 1011.07 1011.31 1011.55 1011.79 1012.03 1012.23 1012.51 1012.75 1013.03 1013.31 1013.55 1013.79 1014.03 1014.23 1014.47 1014.67 1014.95 1015.23 1015.51 1015.75 1016.07 1016.39 1016.63 1016.87 1017.11 1017.35 1017.59 1017.83 1018.07 1018.23 1018.39 1018.63 1018.83 1019.07 1019.35 1019.59 1019.83 1020.03 1020.23 1020.39 1020.63 1020.83 1021.07 1021.27 1021.51 1021.67 1021.91 1022.15 1022.39 1022.67 1022.95 1023.23 1023.47 1023.75 1023.95 1024.15 1024.31 1024.43 1024.63 1024.79 1024.95 1025.11 1025.23 1025.35
1009.79 1010.07 1010.43 1010.71 1010.99 1011.27 1011.55 1011.79 1012.03 1012.23 1012.47 1012.71 1012.95 1013.23 1013.51 1013.79 1014.03 1014.27 1014.51 1014.67 1014.91 1015.11 1015.35 1015.67 1015.91 1016.19 1016.47 1016.75 1017.03 1017.27 1017.51 1017.75 1017.95 1018.15 1018.31 1018.51 1018.67 1018.95 1019.23 1019.51 1019.79 1019.99 1020.19 1020.39 1020.55 1020.75 1020.95 1021.15 1021.39 1021.63 1021.83 1022.07 1022.31 1022.55 1022.83 1023.11 1023.39 1023.71 1023.99 1024.23 1024.43 1024.59 1024.71 1024.91 1025.07 1025.23 1025.35 1025.51 1025.67
1009.99 1010.31 1010.67 1010.95 1011.23 1011.51 1011.79 1011.99 1012.23 1012.43 1012.67 1012.95 1013.23 1013.51 1013.75 1013.95 1014.23 1014.51 1014.71 1014.91 1015.07 1015.31 1015.51 1015.79 1015.99 1016.27 1016.51 1016.79 1017.03 1017.27 1017.55 1017.79 1018.03 1018.23 1018.47 1018.67 1018.83 1019.03 1019.31 1019.59 1019.91 1020.11 1020.27 1020.47 1020.67 1020.83 1021.07 1021.27 1021.47 1021.71 1021.95 1022.23 1022.51 1022.79 1023.03 1023.31 1023.59 1023.91 1024.23 1024.47 1024.71 1024.87 1025.07 1025.23 1025.35 1025.47 1025.59 1025.71 1025.87
1010.19 1010.51 1010.87 1011.15 1011.43 1011.71 1011.95 1012.19 1012.39 1012.63 1012.83 1013.11 1013.39 1013.71 1013.95 1014.19 1014.39 1014.63 1014.83 1015.07 1015.31 1015.55 1015.79 1016.03 1016.23 1016.47 1016.71 1016.95 1017.15 1017.35 1017.59 1017.87 1018.11 1018.35 1018.51 1018.71 1018.95 1019.15 1019.39 1019.67 1019.99 1020.23 1020.39 1020.55 1020.75 1020.95 1021.11 1021.35 1021.59 1021.83 1022.07 1022.35 1022.67 1022.99 1023.23 1023.51 1023.83 1024.15 1024.39 1024.67 1024.95 1025.15 1025.31 1025.47 1025.59 1025.71 1025.83 1025.95 1026.07
1010.27 1010.63 1010.95 1011.31 1011.59 1011.83 1012.07 1012.35 1012.55 1012.79 1013.03 1013.31 1013.59 1013.87 1014.15 1014.39 1014.63 1014.83 1015.03 1015.23 1015.47 1015.75 1015.99 1016.23 1016.47 1016.67 1016.95 1017.15 1017.35 1017.51 1017.67 1017.91 1018.15 1018.39 1018.63 1018.79 1019.03 1019.23 1019.51 1019.79 1020.07 1020.31 1020.51 1020.67 1020.83 1021.03 1021.23 1021.39 1021.67 1021.91 1022.19 1022.51 1022.87 1023.19 1023.47 1023.75 1024.03 1024.35 1024.63 1024.87 1025.11 1025.35 1025.51 1025.67 1025.79 1025.95 1026.03 1026.15 1026.23
1010.39 1010.67 1011.03 1011.39 1011.71 1011.99 1012.23 1012.47 1012.71 1012.95 1013.23 1013.51 1013.79 1014.03 1014.27 1014.55 1014.83 1015.07 1015.23 1015.39 1015.67 1015.91 1016.15 1016.39 1016.59 1016.79 1016.99 1017.23 1017.43 1017.67 1017.87 1017.99 1018.19 1018.43 1018.71 1018.95 1019.11 1019.31 1019.55 1019.79 1020.11 1020.39 1020.59 1020.75 1020.91 1021.07 1021.27 1021.51 1021.75 1021.99 1022.27 1022.63 1022.95 1023.27 1023.59 1023.87 1024.23 1024.51 1024.83 1025.07 1025.35 1025.51 1025.67 1025.79 1025.95 1026.07 1026.15 1026.27 1026.39
1010.47 1010.75 1011.07 1011.43 1011.79 1012.07 1012.35 1012.55 1012.79 1013.07 1013.35 1013.67 1013.95 1014.19 1014.43 1014.71 1015.03 1015.23 1015.43 1015.55 1015.75 1016.03 1016.27 1016.51 1016.75 1016.95 1017.15 1017.35 1017.55 1017.79 1018.07 1018.19 1018.31 1018.51 1018.75 1018.99 1019.19 1019.35 1019.55 1019.83 1020.11 1020.39 1020.63 1020.79 1020.99 1021.19 1021.39 1021.63 1021.87 1022.07 1022.35 1022.67 1022.95 1023.27 1023.59 1023.95 1024.31 1024.67 1024.95 1025.23 1025.47 1025.67 1025.79 1025.87 1025.99 1026.15 1026.23 1026.31 1026.39
1010.59 1010.83 1011.11 1011.43 1011.79 1012.11 1012.43 1012.67 1012.95 1013.19 1013.47 1013.75 1014.07 1014.39 1014.63 1014.87 1015.15 1015.39 1015.63 1015.79 1015.91 1016.11 1016.39 1016.67 1016.95 1017.11 1017.35 1017.55 1017.75 1017.99 1018.23 1018.39 1018.51 1018.67 1018.83 1019.07 1019.23 1019.35 1019.51 1019.79 1020.07 1020.39 1020.63 1020.83 1021.07 1021.27 1021.51 1021.75 1021.99 1022.23 1022.43 1022.67 1022.95 1023.23 1023.59 1023.95 1024.35 1024.75 1025.07 1025.35 1025.59 1025.79 1025.95 1025.99 1026.07 1026.23 1026.31 1026.39 1026.31
1010.71 1010.95 1011.23 1011.51 1011.83 1012.15 1012.47 1012.79 1013.07 1013.31 1013.59 1013.83 1014.19 1014.47 1014.75 1014.99 1015.31 1015.59 1015.79 1015.99 1016.15 1016.35 1016.55 1016.83 1017.07 1017.31 1017.51 1017.71 1017.95 1018.19 1018.43 1018.63 1018.79 1018.95 1019.03 1019.19 1019.35 1019.47 1019.55 1019.71 1019.99 1020.31 1020.59 1020.83 1021.07 1021.35 1021.59 1021.83 1022.07 1022.35 1022.59 1022.79 1023.03 1023.27 1023.59 1023.95 1024.35 1024.75 1025.11 1025.35 1025.63 1025.79 1025.99 1026.11 1026.19 1026.27 1026.39 1026.43 1026.39
1010.87 1011.11 1011.35 1011.67 1011.95 1012.23 1012.51 1012.83 1013.19 1013.47 1013.71 1013.95 1014.23 1014.51 1014.83 1015.11 1015.43 1015.71 1015.99 1016.23 1016.43 1016.63 1016.79 1017.03 1017.23 1017.47 1017.67 1017.87 1018.07 1018.35 1018.55 1018.79 1019.03 1019.23 1019.35 1019.47 1019.59 1019.67 1019.75 1019.79 1019.95 1020.23 1020.55 1020.83 1021.07 1021.35 1021.63 1021.91 1022.15 1022.43 1022.67 1022.95 1023.11 1023.35 1023.59 1023.95 1024.31 1024.71 1025.07 1025.35 1025.55 1025.75 1025.95 1026.15 1026.23 1026.35 1026.43 1026.51 1026.51
Wind_Speed
13 12 12 11 11 10 10 9 9 10 10 10 10 10 10 10 10 9 9 9 8 8 8 8 8 9 10 12 13 12 11 11 11 10 10 10 10 10 10 10 10 10 9 9 8 8 8 8 8 6 5 5 6 5 5 4 5 6 7 7 6 6 6 8 7 7 7 7 5
14 14 13 12 11 10 10 9 9 9 9 9 9 9 9 9 9 9 9 9 8 8 8 8 8 10 11 13 12 12 11 11 11 11 10 10 11 11 11 10 10 10 10 10 9 8 8 8 8 7 5 5 6 6 5 5 6 7 8 8 6 5 6 7 7 7 7 6 5
15 14 14 13 12 11 10 10 10 11 11 9 9 9 9 8 8 8 8 9 9 8 8 7 9 10 12 13 11 11 11 11 11 11 10 10 11 11 11 10 11 11 11 10 9 8 8 9 8 7 6 6 7 6 6 5 6 7 8 7 5 5 5 6 5 5 5 5 5
15 15 14 14 13 13 12 10 12 12 12 10 9 9 9 8 8 8 8 9 10 9 8 8 9 11 11 12 11 11 11 11 11 11 11 10 10 11 11 11 11 11 11 10 10 10 10 9 8 7 6 7 8 7 6 5 6 6 6 6 5 5 5 5 4 4 5 5 6
15 14 13 12 13 13 12 12 13 13 12 10 9 9 9 8 8 8 8 9 9 9 9 10 10 11 11 12 12 12 12 12 11 11 10 10 10 11 11 12 12 11 11 11 11 11 11 10 7 6 6 6 6 6 6 7 7 7 6 5 4 4 4 5 4 4 4 5 5
14 13 12 11 13 12 12 12 13 13 12 10 11 10 10 8 8 9 9 9 9 10 11 12 11 11 12 12 13 13 12 12 11 10 10 10 10 11 12 12 12 11 11 11 12 12 11 10 7 6 6 6 6 6 7 7 8 7 7 6 5 4 4 4 4 4 5 6 6
13 13 12 12 12 12 12 12 13 12 12 11 12 13 12 10 10 11 11 10 10 10 11 11 11 12 12 13 13 13 12 11 11 11 11 10 11 11 12 12 12 12 11 11 11 11 10 10 8 7 6 6 6 6 6 7 7 8 8 7 5 4 4 5 4 5 6 7 7
12 12 12 12 13 13 13 14 13 12 12 11 12 13 13 12 13 13 12 11 11 11 11 10 12 13 14 14 13 13 12 12 11 11 11 11 12 12 12 12 12 12 11 11 11 11 10 8 7 7 7 6 6 6 6 7 8 9 9 8 6 5 5 5 4 5 6 8 8
11 12 12 12 13 13 14 14 13 13 12 12 13 13 13 13 14 13 12 11 11 11 11 11 13 14 15 14 14 13 12 12 12 11 11 12 12 13 12 12 12 11 10 10 11 11 10 8 7 6 6 6 6 6 7 8 10 10 10 8 7 7 6 6 6 6 7 8 9
12 12 12 12 13 14 13 13 13 13 13 13 13 13 13 13 13 13 12 11 11 12 12 12 13 14 15 15 14 13 12 12 12 12 12 12 13 13 12 11 11 11 10 9 10 10 10 8 8 7 7 7 8 8 9 9 10 10 9 7 8 8 8 7 7 7 7 8 9
13 13 13 13 14 14 13 12 12 12 12 13 13 13 13 13 13 12 12 11 12 13 13 13 14 15 15 14 13 12 12 11 11 12 12 12 12 12 12 11 12 12 11 10 9 9 9 8 9 9 9 8 9 9 9 9 10 10 10 8 9 10 10 9 8 7 7 8 9
13 13 13 13 14 13 13 12 11 12 12 13 13 13 13 13 13 13 12 12 13 13 13 14 14 15 14 13 12 12 12 12 12 12 12 12 12 12 12 12 12 12 11 10 9 8 8 9 11 12 12 10 8 8 8 10 11 11 11 10 10 10 10 10 9 7 7 8 9
13 13 13 13 14 13 13 12 11 12 12 13 13 13 12 12 12 13 13 13 13 12 12 13 14 14 13 12 12 12 12 12 12 12 12 12 12 12 12 12 12 12 11 10 8 8 9 11 12 13 13 11 9 8 8 10 11 12 12 12 11 10 10 10 9 9 8 9 9
13 13 13 13 13 13 12 12 11 11 12 13 13 12 12 11 12 12 12 12 13 12 12 12 12 12 12 12 12 12 12 12 13 13 13 12 12 12 12 11 11 11 10 9 9 10 11 11 12 13 13 12 11 9 9 10 10 11 12 12 12 11 11 10 10 10 10 10 10
13 13 13 13 13 12 12 11 11 11 12 13 12 12 11 11 11 11 11 12 13 12 12 12 11 11 11 12 12 12 13 13 13 13 13 13 12 12 12 11 11 11 10 10 10 10 11 12 12 12 13 13 12 11 10 10 10 11 11 11 11 11 11 10 10 10 10 11 10
13 13 13 13 12 12 11 11 10 10 11 12 12 11 11 10 10 11 12 12 12 11 11 12 11 11 11 11 12 12 13 13 13 13 13 13 12 12 12 12 11 11 11 12 11 10 10 11 11 11 12 12 12 11 11 11 11 11 11 10 11 11 10 10 10 10 10 10 10
13 13 13 13 12 12 11 11 10 10 11 11 12 11 11 10 10 11 11 12 11 11 11 12 11 11 11 11 11 12 12 12 12 12 12 12 12 12 12 12 11 12 12 13 12 12 11 10 10 11 11 12 12 12 12 12 12 11 11 11 10 10 10 9 9 9 10 10 10
14 13 13 13 12 12 11 11 11 11 11 12 12 11 11 11 11 11 11 12 11 12 12 12 11 11 12 12 11 11 11 11 12 12 12 12 12 12 12 12 11 11 12 12 13 13 12 11 11 11 11 11 11 12 12 12 12 12 12 11 10 9 9 9 8 9 9 10 10
14 14 13 13 12 12 11 11 12 12 12 12 11 11 11 11 12 12 11 11 11 12 13 13 12 12 12 13 12 11 10 11 12 12 12 12 12 12 12 12 11 11 11 12 12 12 13 12 12 12 12 11 11 12 12 12 12 12 12 11 10 9 8 8 8 8 9 9 9
14 14 13 12 12 11 11 12 12 12 11 11 11 12 12 12 12 12 12 11 12 13 14 14 13 13 13 13 13 12 11 10 12 12 12 12 11 11 12 12 11 11 11 11 12 12 13 13 12 12 12 12 13 13 13 13 13 12 12 10 10 9 9 9 9 9 9 9 9
14 14 13 12 12 11 11 11 12 12 12 12 12 12 12 12 12 12 13 13 13 14 14 14 14 14 14 14 13 13 11 10 11 12 12 12 12 12 11 11 11 11 11 11 11 12 13 13 13 13 13 13 13 13 13 13 13 13 12 10 10 10 10 9 9 9 9 9 9
13 13 13 12 12 11 11 11 11 12 12 12 12 12 12 12 12 13 13 14 14 14 14 14 15 15 15 14 14 13 12 11 11 11 11 11 11 11 11 11 11 11 11 11 11 12 13 13 13 13 12 12 13 13 13 14 14 13 12 12 11 10 10 9 9 9 9 9 9
13 13 12 12 12 12 12 12 12 12 12 12 12 13 13 13 13 14 14 14 14 15 15 14 14 14 14 14 14 14 13 13 12 12 11 11 11 11 10 10 10 10 10 9 10 11 12 12 13 12 11 11 12 13 13 14 13 13 13 13 12 11 10 10 9 9 9 9 9
13 13 12 12 12 13 13 13 13 13 13 13 13 14 14 14 14 14 15 15 15 15 14 12 12 13 14 14 14 14 15 15 14 13 12 12 11 11 11 10 9 9 8 8 9 10 11 11 11 11 11 11 12 12 13 13 12 13 13 13 12 12 11 10 10 10 10 9 9
13 13 13 13 13 14 14 14 14 14 14 14 14 15 15 15 15 15 15 15 15 15 14 14 13 13 13 13 14 14 14 15 15 14 13 13 12 11 10 9 9 8 8 10 14 16 15 13 11 11 11 11 12 12 12 12 12 13 13 13 13 12 12 11 10 10 9 9 8
14 14 14 14 14 15 15 15 15 15 15 15 15 15 15 15 15 15 15 15 15 14 14 14 14 13 13 13 13 13 13 13 13 14 14 13 13 12 10 9 8 7 8 13 17 19 19 17 15 13 12 11 12 12 12 12 12 12 12 12 12 12 12 12 11 9 8 8 7
14 14 15 15 15 15 15 15 15 15 15 15 15 15 15 15 14 15 15 15 15 14 14 13 13 13 12 12 13 13 12 11 12 13 13 13 13 12 11 9 8 8 10 16 20 20 20 19 18 16 14 11 11 11 11 11 12 12 11 11 11 11 12 12 11 10 8 6 6
14 15 15 15 15 15 15 15 15 15 15 15 15 15 15 15 15 15 15 15 14 13 12 11 11 10 10 10 12 12 13 12 12 12 12 13 13 12 11 10 9 10 14 19 21 21 21 20 20 19 16 13 11 11 12 12 11 11 10 10 10 10 11 10 10 9 8 7 6
15 15 15 15 15 15 15 15 15 15 14 15 15 15 15 15 15 15 15 14 14 12 11 9 9 8 9 10 11 12 12 12 11 11 11 12 12 11 11 11 11 13 17 21 21 21 21 21 21 20 18 15 11 10 9 10 10 10 9 9 9 9 9 9 8 8 8 8 8
15 15 15 15 15 14 14 14 14 14 14 14 15 15 15 15 15 14 14 14 13 12 10 9 9 10 10 11 11 11 11 11 11 11 12 13 12 12 11 12 12 14 18 22 22 22 22 22 22 21 20 17 13 10 9 9 9 9 8 8 8 8 9 9 9 9 9 9 9
15 15 15 15 14 14 14 14 14 14 14 14 14 15 15 14 14 13 13 12 12 11 11 12 12 12 12 11 11 11 11 11 11 11 12 13 13 13 13 13 13 15 18 22 22 22 22 22 22 21 20 18 14 10 9 9 9 8 8 8 8 9 9 9 9 9 9 9 9
15 15 15 15 14 14 14 14 14 14 14 15 15 14 14 13 13 12 12 12 12 13 13 13 14 13 13 12 12 12 11 11 11 11 12 13 14 14 14 13 14 15 18 22 22 23 23 22 22 21 20 18 14 11 10 10 9 9 8 9 9 9 9 8 8 8 9 9 9
15 15 15 15 14 14 14 14 14 14 14 14 14 14 13 12 12 11 11 11 12 13 14 14 14 14 13 13 13 12 12 12 12 13 13 14 14 15 14 13 13 15 19 23 23 23 23 22 22 21 20 19 14 12 11 10 9 9 8 8 8 8 9 8 8 8 8 8 8
16 15 15 15 14 14 14 14 13 14 14 14 14 13 13 12 12 12 11 10 11 11 12 13 13 13 13 13 13 13 13 12 12 13 14 14 15 15 14 12 11 15 20 23 23 23 23 23 22 22 21 18 14 12 11 11 10 9 9 9 9 8 8 8 8 8 8 8 8
16 16 15 14 14 14 14 14 14 14 14 14 13 13 12 12 12 12 11 11 11 11 11 11 12 12 12 12 13 13 14 14 14 14 14 15 15 15 14 13 13 17 21 23 23 23 23 23 23 22 20 17 12 11 11 11 11 10 10 10 9 9 8 8 7 7 7 8 8
17 16 16 15 14 14 14 14 14 14 14 14 13 13 12 12 11 11 11 12 12 12 11 11 11 12 12 12 12 13 14 15 15 15 15 15 15 15 15 14 15 18 22 23 23 23 23 23 23 22 19 14 11 10 10 10 10 10 11 10 9 9 8 7 7 7 7 7 7
16 17 16 16 15 14 14 14 14 14 14 14 13 13 13 12 11 10 10 11 12 12 12 11 12 12 12 12 12 12 13 14 15 15 15 15 15 15 16 16 16 19 21 23 23 23 23 23 23 21 18 13 11 10 10 10 9 10 10 10 9 8 7 7 7 7 7 7 7
16 16 17 16 15 15 14 14 14 14 14 14 13 12 12 12 11 10 10 10 11 12 12 11 11 11 12 12 12 12 12 13 14 15 15 15 15 16 16 17 17 17 19 22 23 23 23 23 22 20 17 12 12 11 10 9 9 9 9 8 8 7 6 5 5 6 6 7 9
15 16 16 16 16 15 15 14 14 14 14 14 13 12 12 11 9 9 8 9 10 11 12 12 11 11 12 12 12 12 12 12 13 14 15 15 15 16 17 17 17 17 18 22 23 23 23 23 22 20 17 13 12 11 10 10 10 10 9 8 7 6 5 5 5 5 6 7 11
15 15 16 16 16 15 15 15 14 14 14 14 13 13 12 11 9 9 8 8 9 10 11 11 12 12 12 12 12 12 12 11 12 12 13 14 15 17 18 17 17 18 19 22 23 23 23 23 22 20 17 12 11 10 10 10 10 10 9 8 7 6 5 4 4 4 5 6 9
14 15 15 15 15 15 15 15 14 13 13 13 13 12 11 10 10 9 9 8 9 9 10 10 12 12 12 12 11 11 12 11 11 11 12 13 14 16 16 16 17 18 19 21 23 24 24 23 22 20 17 12 10 9 9 10 10 10 10 8 7 7 6 5 4 4 4 4 5
Wind_Direction
135 136 136 136 136 136 136 136 138 140 141 143 144 145 146 147 147 148 150 151 150 151 152 153 154 154 155 157 157 156 153 150 148 144 141 139 141 142 144 145 144 140 136 132 128 123 119 114 110 105 101 100 97 93 91 92 96 94 92 92 93 93 93 94 93 90 87 84 85
136 136 136 136 135 134 134 136 137 139 140 142 141 142 143 145 146 147 149 150 150 148 148 150 151 152 153 156 155 152 149 148 145 141 139 138 141 142 143 143 141 138 133 129 126 123 118 114 110 106 103 101 99 96 93 91 96 96 95 95 96 95 92 91 92 91 90 87 85
137 137 138 138 137 138 138 139 140 140 140 139 139 140 140 141 143 144 146 148 146 145 145 147 149 150 151 152 151 149 147 146 143 141 139 140 140 140 140 138 135 133 130 127 124 121 117 113 109 108 107 107 106 104 101 96 97 98 98 97 97 95 93 94 93 93 90 87 84
138 139 139 140 140 141 141 141 141 140 139 137 137 137 138 138 139 140 141 142 143 144 145 146 147 149 150 149 148 147 146 144 142 141 140 139 137 135 134 132 130 128 126 124 121 117 113 109 106 105 107 109 109 110 110 108 101 98 96 93 92 92 95 98 95 93 91 90 87
140 140 140 140 140 140 139 138 139 139 138 136 137 137 137 137 137 137 138 140 144 145 145 144 145 148 149 148 146 145 145 144 142 141 138 135 132 130 128 127 126 125 123 121 119 115 110 105 103 103 105 107 108 110 113 114 106 101 95 89 87 90 93 96 94 93 93 94 91
140 139 137 137 137 137 136 137 138 138 138 138 138 139 139 139 139 140 141 141 141 140 140 142 144 145 147 147 146 145 145 144 143 139 134 130 126 124 122 122 123 122 121 120 118 114 110 107 105 104 104 103 103 107 111 112 108 104 99 93 89 88 90 92 95 95 95 96 94
138 136 135 135 136 135 135 137 137 137 138 139 140 141 141 140 141 141 140 137 137 138 140 143 145 146 147 148 147 147 146 145 141 135 130 126 124 122 122 121 120 120 120 120 117 114 111 110 110 110 109 107 106 108 109 110 109 107 104 101 97 92 89 91 95 98 98 98 97
134 134 134 134 134 135 136 137 138 138 139 141 142 141 140 139 139 138 137 135 138 141 143 145 147 148 148 149 148 148 146 143 138 133 129 126 125 123 121 119 119 118 118 117 115 114 112 110 112 114 116 114 112 111 111 110 109 108 107 106 103 98 94 95 97 99 100 99 97
132 132 133 132 133 134 135 137 138 139 139 140 140 140 140 139 138 137 137 138 142 143 144 145 147 148 148 148 148 147 145 141 137 134 131 129 126 123 121 119 117 116 114 113 113 113 113 111 112 114 116 117 117 116 115 112 110 109 108 108 107 105 102 100 99 98 98 97 95
134 134 133 132 133 134 134 135 135 136 136 136 137 138 139 139 139 139 140 141 142 143 144 145 147 147 147 147 146 144 142 139 136 135 133 130 126 124 122 121 118 116 114 113 113 112 112 111 112 111 112 113 116 117 117 115 113 111 110 110 111 110 107 102 99 98 97 96 95
135 135 134 134 134 134 133 132 132 133 134 135 136 138 139 140 141 141 142 141 142 143 145 147 148 147 147 145 144 142 140 138 136 134 132 128 125 124 123 122 121 119 118 117 115 114 113 113 114 113 112 112 115 117 118 117 114 112 111 112 113 112 109 106 102 100 99 100 98
134 134 134 133 134 133 132 132 132 133 135 136 138 140 141 142 143 142 141 141 141 143 145 147 147 146 145 143 142 140 138 136 134 131 128 125 124 123 122 121 121 120 119 119 118 117 117 119 120 119 118 117 117 119 120 120 117 115 114 114 114 112 111 111 109 107 106 104 101
134 134 133 133 133 133 132 132 133 135 137 139 141 142 143 143 143 142 141 140 141 142 144 146 145 144 142 141 140 138 136 134 132 129 126 124 123 122 121 121 120 120 119 119 119 120 122 123 124 124 123 122 121 122 123 123 120 119 118 118 116 115 115 115 115 113 110 107 105
134 134 134 134 134 134 133 134 135 137 139 142 143 143 143 143 143 142 140 140 141 142 143 143 142 141 139 139 138 136 134 132 129 127 125 124 123 123 122 122 121 120 119 119 119 121 124 126 127 127 126 125 124 124 123 122 120 120 120 121 120 119 119 119 118 116 114 111 108
134 134 135 135 135 136 136 137 137 140 141 143 144 144 143 143 142 141 140 139 140 141 142 141 138 136 134 133 132 131 130 128 126 125 123 123 123 123 123 122 122 121 120 119 119 121 123 126 127 127 126 126 125 124 122 118 117 117 118 120 121 121 121 121 120 118 116 115 112
134 135 136 137 137 138 138 139 140 141 143 144 144 143 143 143 141 140 140 140 141 141 140 138 134 130 127 126 126 126 126 125 124 123 123 124 124 124 123 123 122 122 122 121 119 119 120 122 124 124 124 124 123 121 118 116 114 114 114 115 116 117 119 120 118 117 117 116 114
136 137 138 139 139 139 140 141 141 143 144 143 143 143 142 141 140 140 141 142 142 140 136 132 127 124 123 123 123 123 124 124 123 123 124 125 125 125 124 123 123 123 123 122 121 119 119 119 119 120 120 119 118 117 115 113 112 111 111 110 111 112 113 114 114 114 114 114 113
138 139 140 140 140 140 140 140 141 142 142 142 142 141 141 140 140 140 141 141 139 134 128 123 121 121 122 123 123 123 123 123 123 123 124 125 124 123 123 122 122 122 122 121 121 121 120 120 119 118 116 114 113 112 111 110 109 109 108 107 105 105 105 106 107 110 111 112 112
140 141 140 140 139 138 138 138 139 140 140 140 139 138 138 138 138 138 137 134 129 124 121 119 118 119 120 121 121 120 120 121 121 120 120 120 120 120 119 119 119 119 119 119 120 120 120 119 119 117 115 113 111 109 108 107 107 106 105 103 101 100 99 99 101 103 106 108 108
141 141 140 138 137 136 135 135 136 136 137 136 135 135 135 136 134 131 127 123 119 118 118 118 119 120 120 119 118 117 117 117 117 117 116 116 117 117 117 118 117 117 117 117 118 118 118 118 117 116 114 113 111 110 108 107 106 106 104 102 100 98 97 97 98 99 101 103 103
140 139 138 135 133 132 132 131 132 132 132 131 131 131 130 127 123 120 118 117 117 117 117 119 120 121 120 119 117 116 115 114 114 114 114 114 114 115 116 117 116 116 116 116 117 117 117 117 115 114 113 112 112 111 111 110 109 108 106 104 101 99 97 98 98 99 99 100 100
138 136 133 131 129 127 127 126 126 126 126 125 124 121 118 115 113 113 114 115 116 116 117 119 120 120 120 119 117 116 113 111 111 111 111 111 111 111 112 113 114 114 114 114 115 115 115 114 113 112 111 111 112 113 114 114 113 110 108 105 102 100 99 98 99 99 99 99 99
134 132 129 127 124 123 121 121 120 118 117 115 113 111 110 110 111 113 114 115 116 116 116 116 116 117 117 117 116 115 113 111 109 108 108 108 108 108 108 108 108 109 110 111 112 112 111 111 110 110 110 111 113 114 114 114 113 112 110 108 106 104 102 101 102 102 101 101 101
131 129 127 125 122 119 117 115 113 111 110 109 109 110 111 113 114 115 115 115 115 115 114 113 113 113 113 113 114 115 115 114 112 110 109 108 108 108 106 104 102 103 104 108 111 113 113 112 112 113 113 113 112 112 112 112 113 113 114 113 112 110 108 106 106 106 106 106 107
129 127 125 122 119 117 114 112 110 110 109 110 112 113 114 116 116 116 115 114 113 112 112 112 112 112 112 112 113 114 115 116 116 115 113 111 110 109 107 104 102 102 106 112 115 116 117 118 119 119 117 115 113 112 112 112 113 115 116 118 118 117 114 112 111 111 112 114 117
126 124 121 119 116 114 113 112 112 112 112 114 115 116 116 117 116 114 113 112 111 112 112 113 114 114 114 114 114 114 114 115 117 118 117 116 114 112 110 108 107 107 112 119 120 120 120 120 120 119 118 118 117 116 115 114 114 116 118 120 121 121 120 119 119 119 121 124 128
123 121 119 117 115 115 114 114 114 115 116 117 117 117 117 116 115 113 112 112 112 112 112 113 114 115 116 115 116 116 116 116 117 117 118 119 118 116 114 112 113 116 121 125 125 124 123 121 120 119 118 118 118 119 118 117 117 118 120 122 123 123 123 124 126 127 127 126 124
120 119 118 116 115 115 115 115 116 117 118 118 117 116 116 115 114 114 114 114 114 113 113 113 115 115 115 114 116 117 117 117 117 117 117 118 117 117 117 117 119 124 127 129 127 126 124 123 121 120 120 119 118 117 118 119 121 122 123 124 124 124 124 125 126 126 122 115 106
119 118 117 116 116 116 116 116 117 118 118 117 116 116 115 116 116 116 116 116 116 116 116 117 116 114 113 114 115 115 115 116 117 118 117 117 116 116 117 119 123 127 130 131 129 127 126 125 124 123 122 121 119 118 119 121 123 125 125 125 125 125 124 123 121 119 115 110 104
118 117 116 116 116 116 116 117 117 118 117 117 116 117 117 117 118 118 119 118 118 118 119 119 116 115 115 117 117 116 116 117 118 119 119 119 118 118 119 121 125 129 132 132 130 128 127 127 126 125 124 122 119 118 120 122 123 124 124 124 123 122 120 119 117 116 115 113 109
117 116 115 115 114 115 115 116 117 117 118 118 119 118 118 119 119 120 120 119 118 117 116 115 115 116 117 117 117 117 118 119 119 121 121 121 120 120 121 123 126 130 132 133 131 129 129 128 127 126 125 123 120 119 119 120 119 120 120 120 119 118 117 116 115 115 115 114 110
117 115 114 114 114 115 116 116 117 118 119 119 119 118 118 118 119 119 118 118 117 116 116 116 117 117 117 116 116 118 119 121 122 124 124 123 122 122 123 124 128 131 134 134 132 131 130 130 128 127 125 122 119 116 115 114 113 112 112 112 113 113 114 114 113 111 109 108 107
117 115 115 115 115 116 117 118 118 119 119 118 117 117 117 117 117 117 117 118 119 120 121 122 122 122 122 122 121 122 122 123 124 125 124 124 123 123 124 125 129 133 136 136 134 132 132 130 129 126 124 121 117 114 113 113 111 109 107 105 104 103 103 105 106 105 104 103 103
118 117 116 116 117 118 118 119 119 119 118 117 116 117 118 118 118 119 119 120 121 121 122 123 124 125 126 126 126 126 126 126 126 126 126 125 125 125 126 129 132 137 138 137 135 134 132 131 128 125 122 119 116 113 112 111 110 108 106 103 99 96 95 97 99 100 101 102 103
121 120 119 119 120 120 120 121 120 119 118 118 118 118 119 120 121 122 122 122 120 119 120 121 122 123 124 125 127 127 127 127 128 128 128 128 128 128 129 131 135 139 140 138 137 135 133 131 128 125 122 118 115 112 111 110 109 108 107 105 102 99 97 96 97 99 101 103 106
125 123 123 123 123 123 123 123 123 121 120 120 120 121 121 120 121 122 122 122 120 119 120 121 122 123 124 126 127 128 130 131 131 131 131 131 131 131 131 133 136 140 141 139 138 136 134 131 128 125 122 118 116 114 113 112 110 109 108 107 105 104 103 102 102 103 104 106 111
128 127 127 127 127 127 127 127 126 124 124 123 124 123 123 122 121 122 123 123 122 122 123 125 126 127 128 129 129 130 132 133 133 133 134 134 134 134 134 136 138 141 142 141 139 137 135 132 129 127 124 120 120 118 117 115 113 111 110 109 108 108 108 108 107 107 109 113 117
132 131 130 131 131 131 131 130 129 128 127 126 125 124 124 123 123 125 126 127 126 127 127 127 127 128 128 128 128 129 131 133 135 135 136 137 138 138 137 138 139 141 142 142 140 137 135 133 131 129 127 124 124 124 122 119 118 117 115 114 112 111 110 112 113 114 118 124 129
135 134 133 133 134 134 134 133 132 131 129 127 126 125 124 124 124 126 127 127 128 128 128 127 127 127 127 127 127 128 131 133 135 137 138 139 141 141 140 139 140 142 142 142 140 138 136 134 132 131 129 127 127 126 125 123 122 121 120 119 118 115 113 114 117 121 128 134 139
136 135 135 135 136 136 136 135 134 132 130 129 128 127 126 125 124 124 124 123 124 125 125 125 126 126 126 127 127 128 130 132 135 137 139 141 143 143 143 141 141 142 142 142 141 139 137 136 135 133 132 128 128 128 127 126 125 125 125 126 125 123 121 118 120 124 132 138 142
136 135 136 136 136 136 136 135 134 132 131 129 129 128 126 124 123 122 121 120 121 122 122 123 124 125 126 127 126 128 128 129 132 136 139 141 143 144 144 142 142 142 142 142 141 140 139 138 137 136 134 130 129 129 129 129 129 130 131 133 132 130 129 126 122 123 128 136 141